This is the latest recevied weather packets stored in our database for station/object W7TTE. If no packets are shown the sender has not sent any weather packets the latest 10 day(s).
| Time | Temp. | Humidity | Pressure | Rain* | Wind** | Luminosity | Snow |
|---|---|---|---|---|---|---|---|
| 1778031521 | 23.33° C | 27% | 1012.7 hPa | 0 mm | - | 23 W/m² | - |
| 1778031219 | 23.89° C | 26% | 1012.7 hPa | 0 mm | - | 36 W/m² | - |
| 1778030915 | 23.89° C | 26% | 1012.6 hPa | 0 mm | - | 41 W/m² | - |
| 1778030612 | 23.89° C | 27% | 1012.6 hPa | 0 mm | - | 44 W/m² | - |
| 1778030309 | 23.89° C | 27% | 1012.5 hPa | 0 mm | - | 50 W/m² | - |
| 1778030005 | 24.44° C | 27% | 1012.4 hPa | 0 mm | - | 52 W/m² | - |
| 1778029703 | 24.44° C | 25% | 1012.4 hPa | 0 mm | - | 59 W/m² | - |
| 1778029401 | 24.44° C | 25% | 1012.5 hPa | 0 mm | - | 63 W/m² | - |
| 1778029097 | 24.44° C | 26% | 1012.2 hPa | 0 mm | - | 75 W/m² | - |
| 1778028794 | 24.44° C | 25% | 1012.3 hPa | 0 mm | - | 75 W/m² | - |
| 1778028490 | 24.44° C | 25% | 1012.4 hPa | 0 mm | - | 89 W/m² | - |
| 1778028188 | 24.44° C | 25% | 1012.1 hPa | 0 mm | - | 102 W/m² | - |
| 1778027884 | 24.44° C | 25% | 1012 hPa | 0 mm | - | 53 W/m² | - |
| 1778027581 | 24.44° C | 26% | 1012.1 hPa | 0 mm | - | 138 W/m² | - |
| 1778027277 | 24.44° C | 25% | 1012.2 hPa | 0 mm | - | 155 W/m² | - |
| 1778026973 | 24.44° C | 26% | 1012.1 hPa | 0 mm | - | 88 W/m² | - |
| 1778026669 | 25° C | 26% | 1012 hPa | 0 mm | - | 65 W/m² | - |
| 1778026367 | 25° C | 26% | 1012 hPa | 0 mm | - | 218 W/m² | - |
| 1778026063 | 25° C | 26% | 1011.8 hPa | 0 mm | - | 229 W/m² | - |
| 1778025761 | 24.44° C | 27% | 1012 hPa | 0 mm | - | 244 W/m² | - |
| 1778025458 | 24.44° C | 26% | 1012 hPa | 0 mm | - | 70 W/m² | - |
| 1778025156 | 25.56° C | 26% | 1011.9 hPa | 0 mm | - | 279 W/m² | - |
| 1778024852 | 25.56° C | 27% | 1011.9 hPa | 0 mm | - | 151 W/m² | - |
| 1778024550 | 25.56° C | 27% | 1011.7 hPa | 0 mm | - | 308 W/m² | - |
| 1778024246 | 25.56° C | 27% | 1011.9 hPa | 0 mm | - | 321 W/m² | - |
* Rain latest hour (hover to see other rain measurements)
** Current wind speed in m/s (hover to see current wind gust speed)